When you browse on this site, cookies collect data to enhance your experience and personalize the content and advertising you see.
Visit our Privacy Policy to learn more. By continuing to use the site, you agree to this use of cookies and data.
  • In Switzerland
  • List of Countries
  • For 7 days
  • Water Temperature
  • Satellite Maps
  • Weather Map
  • Weather Widgets
  • user-avatar
    Login

    Hourly Weather Eisenstadt

    Today, 25 May, Saturday

    Time Temperature Precipitation Wind Pressure Humidity
    00:00 +12°C° 0 mm 2 mps 720 mmHg 77%
    01:00 +12°C° 0 mm 2 mps 720 mmHg 78%
    02:00 +11°C° 0 mm 1 mps 720 mmHg 79%
    03:00 +11°C° 0 mm 1 mps 720 mmHg 80%
    04:00 +11°C° 0 mm 1 mps 720 mmHg 80%
    05:00 +13°C° 0 mm 1 mps 721 mmHg 75%
    06:00 +15°C° 0 mm 1 mps 721 mmHg 70%
    07:00 +16°C° 0 mm 0 mps 721 mmHg 65%
    08:00 +17°C° 0 mm 0 mps 721 mmHg 60%
    09:00 +21°C° 0 mm 1 mps 721 mmHg 56%
    10:00 +22°C° 0 mm 1 mps 721 mmHg 52%
    11:00 +22°C° 0 mm 1 mps 721 mmHg 51%
    12:00 +23°C° 0 mm 1 mps 721 mmHg 50%
    13:00 +23°C° 0 mm 1 mps 721 mmHg 49%
    14:00 +23°C° 0.2 mm 1 mps 721 mmHg 52%
    15:00 +23°C° 0.2 mm 2 mps 720 mmHg 55%
    16:00 +23°C° 0.2 mm 2 mps 720 mmHg 57%
    17:00 +22°C° 0.3 mm 1 mps 720 mmHg 63%
    18:00 +20°C° 0.3 mm 1 mps 720 mmHg 69%
    19:00 +19°C° 0.3 mm 1 mps 720 mmHg 75%
    20:00 +18°C° 0.8 mm 1 mps 720 mmHg 79%
    21:00 +16°C° 0.8 mm 1 mps 720 mmHg 83%
    22:00 +16°C° 0.8 mm 1 mps 720 mmHg 86%
    23:00 +15°C° 1.3 mm 1 mps 720 mmHg 89%

    Tomorrow, 26 May, Sunday

    Time Temperature Precipitation Wind Pressure Humidity
    00:00 +14°C° 1.3 mm 1 mps 720 mmHg 91%
    01:00 +14°C° 1.3 mm 1 mps 720 mmHg 93%
    02:00 +13°C° 0 mm 1 mps 720 mmHg 93%
    03:00 +13°C° 0 mm 1 mps 720 mmHg 93%
    04:00 +13°C° 0 mm 1 mps 720 mmHg 92%
    05:00 +14°C° 0 mm 1 mps 720 mmHg 89%
    06:00 +15°C° 0 mm 1 mps 721 mmHg 86%
    07:00 +18°C° 0 mm 1 mps 721 mmHg 82%
    08:00 +19°C° 0 mm 1 mps 721 mmHg 76%
    09:00 +21°C° 0 mm 1 mps 721 mmHg 69%
    10:00 +21°C° 0 mm 2 mps 722 mmHg 63%
    11:00 +23°C° 0.2 mm 1 mps 721 mmHg 61%
    12:00 +23°C° 0.2 mm 1 mps 721 mmHg 60%
    13:00 +24°C° 0.2 mm 1 mps 721 mmHg 58%
    14:00 +24°C° 0.4 mm 1 mps 721 mmHg 59%
    15:00 +24°C° 0.4 mm 1 mps 720 mmHg 59%
    16:00 +24°C° 0.4 mm 1 mps 720 mmHg 59%
    17:00 +23°C° 0.6 mm 1 mps 720 mmHg 65%
    18:00 +21°C° 0.6 mm 1 mps 720 mmHg 72%
    19:00 +20°C° 0.6 mm 1 mps 720 mmHg 79%
    20:00 +19°C° 0.1 mm 1 mps 720 mmHg 81%
    21:00 +18°C° 0.1 mm 1 mps 720 mmHg 83%
    22:00 +16°C° 0.1 mm 1 mps 720 mmHg 85%
    23:00 +15°C° 0 mm 1 mps 720 mmHg 85%

    Day after tomorrow, 27 May, Monday

    Time Temperature Precipitation Wind Pressure Humidity
    00:00 +15°C° 0 mm 1 mps 720 mmHg 85%
    01:00 +15°C° 0 mm 1 mps 720 mmHg 85%
    02:00 +14°C° 0 mm 1 mps 720 mmHg 84%
    03:00 +14°C° 0 mm 1 mps 719 mmHg 84%
    04:00 +14°C° 0 mm 1 mps 719 mmHg 84%
    05:00 +15°C° 0.1 mm 1 mps 719 mmHg 82%
    06:00 +16°C° 0.1 mm 1 mps 720 mmHg 81%
    07:00 +16°C° 0.1 mm 0 mps 720 mmHg 79%
    08:00 +17°C° 0.2 mm 0 mps 720 mmHg 78%
    09:00 +19°C° 0.2 mm 1 mps 720 mmHg 77%
    10:00 +19°C° 0.2 mm 1 mps 720 mmHg 76%
    11:00 +21°C° 0 mm 1 mps 720 mmHg 69%
    12:00 +23°C° 0 mm 2 mps 720 mmHg 61%
    13:00 +24°C° 0 mm 3 mps 719 mmHg 53%
    14:00 +24°C° 0 mm 3 mps 719 mmHg 54%
    15:00 +24°C° 0 mm 3 mps 719 mmHg 55%
    16:00 +23°C° 0 mm 4 mps 718 mmHg 57%
    17:00 +22°C° 0 mm 4 mps 718 mmHg 65%
    18:00 +20°C° 0 mm 4 mps 718 mmHg 73%
    19:00 +19°C° 0 mm 4 mps 717 mmHg 82%
    20:00 +18°C° 0.3 mm 3 mps 717 mmHg 86%
    21:00 +17°C° 0.3 mm 3 mps 717 mmHg 90%
    22:00 +16°C° 0.3 mm 2 mps 717 mmHg 94%
    23:00 +16°C° 0.1 mm 2 mps 717 mmHg 94%

    28 May, Tuesday

    Time Temperature Precipitation Wind Pressure Humidity
    00:00 +15°C° 0.1 mm 2 mps 716 mmHg 93%
    01:00 +15°C° 0.1 mm 2 mps 716 mmHg 92%
    02:00 +14°C° 0 mm 2 mps 716 mmHg 93%
    03:00 +14°C° 0 mm 2 mps 715 mmHg 93%
    04:00 +13°C° 0 mm 2 mps 715 mmHg 94%
    05:00 +14°C° 0 mm 2 mps 715 mmHg 90%
    06:00 +16°C° 0 mm 3 mps 715 mmHg 85%
    07:00 +17°C° 0 mm 3 mps 715 mmHg 81%
    08:00 +19°C° 0 mm 3 mps 715 mmHg 73%
    09:00 +20°C° 0 mm 4 mps 715 mmHg 66%
    10:00 +22°C° 0 mm 4 mps 715 mmHg 58%
    11:00 +22°C° 0.1 mm 4 mps 714 mmHg 57%
    12:00 +23°C° 0.1 mm 4 mps 714 mmHg 55%
    13:00 +25°C° 0.1 mm 4 mps 714 mmHg 54%
    14:00 +24°C° 1.6 mm 3 mps 714 mmHg 61%
    15:00 +23°C° 1.6 mm 2 mps 714 mmHg 68%
    16:00 +22°C° 1.6 mm 1 mps 714 mmHg 75%
    17:00 +19°C° 2 mm 2 mps 714 mmHg 80%
    18:00 +17°C° 2 mm 3 mps 714 mmHg 85%
    19:00 +14°C° 2 mm 4 mps 714 mmHg 91%
    20:00 +14°C° 0.2 mm 4 mps 715 mmHg 90%
    21:00 +13°C° 0.2 mm 3 mps 715 mmHg 90%
    22:00 +13°C° 0.2 mm 3 mps 715 mmHg 90%
    23:00 +12°C° 0 mm 3 mps 716 mmHg 89%

    29 May, Wednesday

    Time Temperature Precipitation Wind Pressure Humidity
    00:00 +12°C° 0 mm 3 mps 716 mmHg 89%
    01:00 +12°C° 0 mm 3 mps 716 mmHg 89%
    02:00 +13°C° 0 mm 2 mps 716 mmHg 88%
    03:00 +12°C° 0 mm 2 mps 717 mmHg 88%
    04:00 +12°C° 0 mm 2 mps 717 mmHg 88%
    05:00 +13°C° 0.1 mm 2 mps 717 mmHg 87%
    06:00 +12°C° 0.1 mm 3 mps 717 mmHg 86%
    07:00 +12°C° 0.1 mm 3 mps 718 mmHg 86%
    08:00 +13°C° 0.2 mm 3 mps 718 mmHg 85%
    09:00 +13°C° 0.2 mm 3 mps 719 mmHg 85%
    10:00 +14°C° 0.2 mm 3 mps 719 mmHg 84%
    11:00 +13°C° 0.3 mm 3 mps 719 mmHg 85%
    12:00 +13°C° 0.3 mm 3 mps 719 mmHg 85%
    13:00 +13°C° 0.3 mm 3 mps 720 mmHg 86%
    14:00 +13°C° 0.1 mm 3 mps 720 mmHg 83%
    15:00 +14°C° 0.1 mm 4 mps 720 mmHg 80%
    16:00 +14°C° 0.1 mm 5 mps 721 mmHg 78%
    17:00 +13°C° 0.2 mm 4 mps 721 mmHg 80%
    18:00 +12°C° 0.2 mm 4 mps 722 mmHg 83%
    19:00 +11°C° 0.2 mm 4 mps 722 mmHg 85%
    20:00 +10°C° 0.1 mm 4 mps 723 mmHg 86%
    21:00 +10°C° 0.1 mm 4 mps 723 mmHg 87%
    22:00 +8°C° 0.1 mm 4 mps 724 mmHg 87%
    23:00 +8°C° 0 mm 4 mps 724 mmHg 88%

    30 May, Thursday

    Time Temperature Precipitation Wind Pressure Humidity
    00:00 +8°C° 0 mm 4 mps 724 mmHg 88%
    01:00 +8°C° 0 mm 4 mps 724 mmHg 88%
    02:00 +8°C° 0 mm 4 mps 725 mmHg 88%
    03:00 +8°C° 0 mm 4 mps 725 mmHg 87%
    04:00 +8°C° 0 mm 4 mps 725 mmHg 87%
    05:00 +8°C° 0 mm 5 mps 725 mmHg 83%
    06:00 +9°C° 0 mm 5 mps 725 mmHg 80%
    07:00 +10°C° 0 mm 6 mps 726 mmHg 76%
    08:00 +11°C° 0 mm 6 mps 726 mmHg 71%
    09:00 +13°C° 0 mm 6 mps 726 mmHg 67%
    10:00 +14°C° 0 mm 5 mps 726 mmHg 63%
    11:00 +15°C° 0 mm 5 mps 725 mmHg 61%
    12:00 +16°C° 0 mm 5 mps 725 mmHg 59%
    13:00 +17°C° 0 mm 5 mps 725 mmHg 57%
    14:00 +17°C° 0 mm 5 mps 725 mmHg 57%
    15:00 +16°C° 0 mm 5 mps 724 mmHg 58%
    16:00 +17°C° 0 mm 4 mps 724 mmHg 59%
    17:00 +15°C° 0 mm 4 mps 724 mmHg 65%
    18:00 +14°C° 0 mm 3 mps 723 mmHg 71%
    19:00 +14°C° 0 mm 2 mps 723 mmHg 77%
    20:00 +13°C° 0 mm 2 mps 723 mmHg 80%
    21:00 +12°C° 0 mm 2 mps 723 mmHg 84%
    22:00 +10°C° 0 mm 2 mps 723 mmHg 87%
    23:00 +9°C° 0 mm 2 mps 723 mmHg 87%
    Show more